When you browse on this site, cookies collect data to enhance your experience and personalize the content and advertising you see.
Visit our Privacy Policy to learn more. By continuing to use the site, you agree to this use of cookies and data.
  • In Hungary
  • List of Countries
  • For 7 days
  • Water Temperature
  • Satellite Maps
  • Weather Map
  • News
  • Weather Widgets
  • user-avatar
    Login

    Hourly Weather Sterkow

    Today, 11 December, Tuesday

    Time Temperature Precipitation Wind Pressure Humidity
    00:00 +1°C° 0.2 mm 5 mps 744 mmHg 79%
    01:00 +1°C° 0 mm 4 mps 744 mmHg 81%
    02:00 +1°C° 0.4 mm 5 mps 744 mmHg 81%
    03:00 +1°C° 0.4 mm 5 mps 744 mmHg 81%
    04:00 +1°C° 0.4 mm 5 mps 744 mmHg 80%
    05:00 +1°C° 0.7 mm 5 mps 744 mmHg 80%
    06:00 +1°C° 0.7 mm 6 mps 744 mmHg 80%
    07:00 +1°C° 0.7 mm 6 mps 744 mmHg 79%
    08:00 +1°C° 0.4 mm 6 mps 744 mmHg 80%
    09:00 +1°C° 0.4 mm 5 mps 745 mmHg 80%
    10:00 +2°C° 0.4 mm 5 mps 745 mmHg 80%
    11:00 +2°C° 0.3 mm 5 mps 745 mmHg 79%
    12:00 +2°C° 0.3 mm 5 mps 746 mmHg 77%
    13:00 +2°C° 0.3 mm 5 mps 746 mmHg 75%
    14:00 +3°C° 0.2 mm 4 mps 747 mmHg 77%
    15:00 +1°C° 0.2 mm 4 mps 747 mmHg 78%
    16:00 +2°C° 0.2 mm 3 mps 748 mmHg 80%
    17:00 +2°C° 0.1 mm 3 mps 748 mmHg 82%
    18:00 +1°C° 0.1 mm 3 mps 748 mmHg 84%
    19:00 +1°C° 0.1 mm 3 mps 748 mmHg 86%
    20:00 +1°C° 0.1 mm 3 mps 749 mmHg 88%
    21:00 +1°C° 0.1 mm 3 mps 749 mmHg 90%
    22:00 0°C° 0.1 mm 3 mps 749 mmHg 92%
    23:00 0°C° 0 mm 3 mps 750 mmHg 93%

    Tomorrow, 12 December, Wednesday

    Time Temperature Precipitation Wind Pressure Humidity
    00:00 0°C° 0 mm 3 mps 750 mmHg 93%
    01:00 0°C° 0 mm 3 mps 751 mmHg 94%
    02:00 0°C° 0.1 mm 3 mps 751 mmHg 94%
    03:00 0°C° 0.1 mm 3 mps 751 mmHg 94%
    04:00 0°C° 0.1 mm 3 mps 752 mmHg 94%
    05:00 +1°C° 0 mm 2 mps 752 mmHg 94%
    06:00 -1°C° 0 mm 2 mps 753 mmHg 95%
    07:00 -1°C° 0 mm 2 mps 753 mmHg 95%
    08:00 -1°C° 0 mm 2 mps 754 mmHg 93%
    09:00 -1°C° 0 mm 2 mps 754 mmHg 91%
    10:00 +1°C° 0 mm 2 mps 754 mmHg 89%
    11:00 +1°C° 0 mm 2 mps 755 mmHg 86%
    12:00 +2°C° 0 mm 2 mps 755 mmHg 83%
    13:00 +2°C° 0 mm 2 mps 755 mmHg 81%
    14:00 +1°C° 0 mm 2 mps 755 mmHg 84%
    15:00 +2°C° 0 mm 1 mps 755 mmHg 87%
    16:00 +1°C° 0 mm 1 mps 755 mmHg 90%
    17:00 +1°C° 0 mm 1 mps 755 mmHg 91%
    18:00 +1°C° 0 mm 1 mps 756 mmHg 91%
    19:00 +1°C° 0 mm 1 mps 756 mmHg 92%
    20:00 +1°C° 0 mm 1 mps 756 mmHg 93%
    21:00 +1°C° 0 mm 1 mps 756 mmHg 93%
    22:00 +1°C° 0 mm 1 mps 756 mmHg 94%
    23:00 +1°C° 0 mm 1 mps 756 mmHg 94%

    Day after tomorrow, 13 December, Thursday

    Time Temperature Precipitation Wind Pressure Humidity
    00:00 +1°C° 0 mm 1 mps 756 mmHg 94%
    01:00 +1°C° 0 mm 1 mps 756 mmHg 94%
    02:00 +1°C° 0 mm 1 mps 756 mmHg 94%
    03:00 +1°C° 0 mm 1 mps 756 mmHg 95%
    04:00 +1°C° 0 mm 1 mps 756 mmHg 95%
    05:00 +1°C° 0.1 mm 1 mps 756 mmHg 95%
    06:00 0°C° 0.1 mm 1 mps 756 mmHg 95%
    07:00 0°C° 0.1 mm 1 mps 756 mmHg 95%
    08:00 -1°C° 0 mm 2 mps 756 mmHg 94%
    09:00 -1°C° 0 mm 2 mps 756 mmHg 92%
    10:00 -1°C° 0 mm 2 mps 756 mmHg 90%
    11:00 +1°C° 0 mm 2 mps 756 mmHg 88%
    12:00 +1°C° 0 mm 2 mps 756 mmHg 87%
    13:00 +1°C° 0 mm 2 mps 755 mmHg 85%
    14:00 +1°C° 0 mm 2 mps 755 mmHg 86%
    15:00 +1°C° 0 mm 2 mps 755 mmHg 87%
    16:00 -1°C° 0 mm 2 mps 755 mmHg 88%
    17:00 -1°C° 0 mm 2 mps 755 mmHg 89%
    18:00 -1°C° 0 mm 2 mps 756 mmHg 89%
    19:00 -1°C° 0 mm 2 mps 756 mmHg 89%
    20:00 -1°C° 0 mm 2 mps 756 mmHg 89%
    21:00 -1°C° 0 mm 2 mps 756 mmHg 89%
    22:00 -1°C° 0 mm 2 mps 756 mmHg 89%
    23:00 -1°C° 0 mm 2 mps 756 mmHg 90%

    14 December, Friday

    Time Temperature Precipitation Wind Pressure Humidity
    00:00 -2°C° 0 mm 2 mps 756 mmHg 90%
    01:00 -2°C° 0 mm 2 mps 756 mmHg 90%
    02:00 -2°C° 0 mm 2 mps 756 mmHg 90%
    03:00 -2°C° 0 mm 2 mps 756 mmHg 90%
    04:00 -2°C° 0 mm 2 mps 756 mmHg 90%
    05:00 -2°C° 0 mm 2 mps 756 mmHg 89%
    06:00 -2°C° 0 mm 2 mps 756 mmHg 88%
    07:00 -2°C° 0 mm 2 mps 756 mmHg 87%
    08:00 -2°C° 0 mm 2 mps 756 mmHg 85%
    09:00 -1°C° 0 mm 2 mps 757 mmHg 82%
    10:00 -1°C° 0 mm 2 mps 757 mmHg 80%
    11:00 -1°C° 0 mm 2 mps 757 mmHg 78%
    12:00 -1°C° 0 mm 2 mps 757 mmHg 76%
    13:00 +1°C° 0 mm 2 mps 757 mmHg 74%
    14:00 -1°C° 0 mm 2 mps 757 mmHg 77%
    15:00 -1°C° 0 mm 2 mps 757 mmHg 81%
    16:00 -2°C° 0 mm 2 mps 757 mmHg 84%
    17:00 -2°C° 0 mm 2 mps 757 mmHg 84%
    18:00 -2°C° 0 mm 2 mps 757 mmHg 85%
    19:00 -3°C° 0 mm 2 mps 758 mmHg 86%
    20:00 -3°C° 0 mm 2 mps 758 mmHg 87%
    21:00 -3°C° 0 mm 2 mps 758 mmHg 87%
    22:00 -3°C° 0 mm 2 mps 758 mmHg 87%
    23:00 -3°C° 0 mm 2 mps 758 mmHg 87%

    15 December, Saturday

    Time Temperature Precipitation Wind Pressure Humidity
    00:00 -1°C° 0 mm 1 mps 758 mmHg 87%
    01:00 -1°C° 0 mm 1 mps 758 mmHg 87%
    02:00 -1°C° 0 mm 1 mps 758 mmHg 87%
    03:00 -2°C° 0 mm 1 mps 758 mmHg 87%
    04:00 -2°C° 0 mm 1 mps 759 mmHg 86%
    05:00 -2°C° 0 mm 1 mps 759 mmHg 87%
    06:00 -1°C° 0 mm 1 mps 759 mmHg 87%
    07:00 -1°C° 0 mm 1 mps 759 mmHg 87%
    08:00 -3°C° 0 mm 2 mps 759 mmHg 85%
    09:00 -2°C° 0 mm 2 mps 759 mmHg 83%
    10:00 -2°C° 0 mm 2 mps 760 mmHg 81%
    11:00 -1°C° 0 mm 2 mps 760 mmHg 78%
    12:00 -1°C° 0 mm 2 mps 760 mmHg 75%
    13:00 -1°C° 0 mm 2 mps 760 mmHg 72%
    14:00 -1°C° 0 mm 2 mps 760 mmHg 77%
    15:00 -2°C° 0 mm 2 mps 759 mmHg 81%
    16:00 -3°C° 0 mm 2 mps 759 mmHg 86%
    17:00 -3°C° 0 mm 2 mps 760 mmHg 87%
    18:00 -3°C° 0 mm 2 mps 760 mmHg 89%
    19:00 -3°C° 0 mm 2 mps 760 mmHg 90%
    20:00 -3°C° 0 mm 2 mps 760 mmHg 90%
    21:00 -3°C° 0 mm 2 mps 760 mmHg 90%
    22:00 -3°C° 0 mm 2 mps 759 mmHg 90%
    23:00 -3°C° 0 mm 2 mps 759 mmHg 90%

    16 December, Sunday

    Time Temperature Precipitation Wind Pressure Humidity
    00:00 -3°C° 0 mm 2 mps 759 mmHg 90%
    01:00 -4°C° 0 mm 2 mps 759 mmHg 90%
    02:00 -4°C° 0 mm 2 mps 758 mmHg 88%
    03:00 -5°C° 0 mm 3 mps 758 mmHg 87%
    04:00 -5°C° 0 mm 3 mps 758 mmHg 85%
    05:00 -5°C° 0 mm 3 mps 757 mmHg 84%
    06:00 -5°C° 0 mm 4 mps 757 mmHg 83%
    07:00 -5°C° 0 mm 4 mps 757 mmHg 82%
    08:00 -4°C° 0 mm 4 mps 756 mmHg 79%
    09:00 -5°C° 0 mm 5 mps 756 mmHg 76%
    10:00 -4°C° 0 mm 5 mps 756 mmHg 72%
    11:00 -4°C° 0 mm 5 mps 755 mmHg 71%
    12:00 -2°C° 0 mm 5 mps 755 mmHg 69%
    13:00 -2°C° 0 mm 5 mps 754 mmHg 68%
    14:00 -2°C° 0 mm 5 mps 753 mmHg 70%
    15:00 -2°C° 0 mm 5 mps 753 mmHg 73%
    16:00 -2°C° 0 mm 5 mps 752 mmHg 75%
    17:00 -2°C° 0.2 mm 5 mps 752 mmHg 78%
    18:00 -4°C° 0.2 mm 5 mps 751 mmHg 80%
    19:00 -4°C° 0.2 mm 5 mps 751 mmHg 82%
    20:00 -2°C° 0.4 mm 5 mps 750 mmHg 83%
    21:00 -2°C° 0.4 mm 4 mps 750 mmHg 85%
    22:00 -2°C° 0.4 mm 4 mps 750 mmHg 86%
    23:00 -1°C° 0.5 mm 4 mps 749 mmHg 88%
    Show more